[[{"header":{"parameterUnit":"m.s-1","parameterCategory":1,"la1":30.2991,"la2":30.254,"lo1":-89.0895,"lo2":-89.0444,"dy":0.0017,"dx":0.0017,"nx":28,"ny":28,"refTime":"2023-11-15T03:00:00:Z","depth":0,"parameterNumber":2,"parameterNumberName":"U-component_of_WINDS"},"data":[0,0,0,0,0,0,0,0,0,0,0,0,0,0,0,0,0,0,0,0,0,0,0,0,0,0,0,0,0,0,0,0,0,0,0,0,0,0,0,0,0,0,0,0,0,0,0,0,0,0,0,0,0,0,0,0,0,0,-4.672,-4.6721,0,-4.6874,-4.6876,-4.6878,-4.6826,-4.6822,-4.6819,-4.6816,-4.6976,-4.6983,-4.699,0,0,0,0,0,0,0,0,0,0,0,0,0,-4.638,-4.6386,-4.6719,-4.6721,-4.6723,-4.6874,-4.6876,-4.6878,-4.6826,-4.6822,-4.6818,-4.6814,-4.6973,-4.6982,-4.6991,0,0,0,0,0,0,0,0,0,0,0,0,0,-4.653,-4.6389,-4.6719,-4.6715,-4.6716,-4.6874,-4.6876,-4.6879,-4.6827,-4.6822,-4.6817,-4.6812,-4.697,-4.6981,-4.6992,-4.7163,0,0,-4.7026,-4.7031,0,0,0,0,0,0,0,0,-4.6522,-4.6543,-4.6714,-4.6716,-4.6717,-4.6825,-4.6815,-4.6974,-4.6828,-4.6785,-4.6815,-4.681,-4.693,-4.6944,-4.6984,-4.717,-4.7177,-4.7027,-4.7034,-4.7039,-4.7042,0,0,0,0,0,0,0,-4.6512,-4.6536,-4.6781,-4.6716,-4.6719,-4.6706,-4.6722,-4.6845,-4.6884,-4.6788,-4.6785,-4.6804,-4.693,-4.6974,-4.6988,-4.7179,-4.7027,-4.7037,-4.7044,-4.7048,-4.7515,-4.7521,0,0,0,0,0,0,-4.65,-4.6528,-4.6776,-4.6785,-4.6605,-4.6717,-4.6734,-4.6796,-4.6883,-4.6891,-4.6808,-4.6801,-4.6957,-4.6975,-4.6993,-4.72,-4.7039,-4.7049,-4.7055,-4.751,-4.7517,-4.7523,0,0,0,0,0,0,-4.6493,-4.6523,-4.677,-4.6656,-4.6686,-4.6728,-4.6798,-4.6802,-4.6845,-4.6898,-4.6904,-4.6846,-4.6954,-4.6977,-4.7121,-4.7205,-4.7054,-4.7064,-4.7503,-4.7512,-4.752,-4.7615,0,0,0,0,0,0,-4.6483,-4.652,-4.6585,-4.6658,-4.6692,-4.6895,-4.6803,-4.6808,-4.6865,-4.6857,-4.6935,-4.6943,-4.6952,-4.7105,-4.7132,-4.7218,-4.7073,-4.7496,-4.7507,-4.7517,-4.7605,-4.7626,-4.7644,0,0,0,0,0,-4.6471,-4.6606,-4.6589,-4.6619,-4.6774,-4.69,-4.692,-4.6927,-4.6871,-4.6938,-4.6971,-4.694,-4.7191,-4.712,-4.7151,-4.724,-4.749,-4.7504,-4.7516,-4.7596,-4.7622,-4.7643,0,0,0,0,0,0,-4.6542,-4.6615,-4.6597,-4.6759,-4.6823,-4.6891,-4.6974,-4.6954,-4.7036,-4.7025,-4.7031,-4.7049,-4.7198,-4.7233,-4.7153,-4.7411,-4.7333,-4.7352,-4.7383,-4.7408,-4.7427,-4.7416,-4.7082,0,0,0,0,0,-4.6576,-4.6672,-4.673,-4.6867,-4.6901,-4.6932,-4.6987,-4.6987,-4.7054,-4.7082,-4.7126,-4.7193,-4.7287,-4.7349,-4.7438,-4.7609,-4.7626,-4.7686,-4.7705,-4.7721,-4.7739,-4.7834,-4.7861,-4.7565,-4.7565,-4.7565,0,0,-4.6649,-4.67,-4.676,-4.6883,-4.6933,-4.7033,-4.6955,-4.7063,-4.7138,-4.7098,-4.7237,-4.7272,-4.7348,-4.7506,-4.7578,-4.754,-4.7824,-4.7738,-4.775,-4.7759,-4.785,-4.7878,-4.7903,-4.7574,-4.7572,-4.7571,0,0,-4.6831,-4.6879,-4.6999,-4.7051,-4.7128,-4.7148,-4.7177,-4.7248,-4.727,-4.7409,-4.7382,-4.7471,-4.7632,-4.7688,-4.7737,-4.7942,-4.7917,-4.7971,-4.8074,-4.8167,-4.819,-4.8211,-4.8286,-4.8312,-4.7988,-4.7988,-4.7988,0,-4.6911,-4.706,-4.7064,-4.7175,-4.7231,-4.7199,-4.7322,-4.7372,-4.7474,-4.7514,-4.747,-4.7673,-4.7721,-4.7893,-4.7944,-4.7984,-4.8018,-4.7963,-4.8186,-4.8207,-4.8226,-4.8298,-4.8326,-4.7994,-4.7993,-4.7993,-4.7992,0,-4.7155,-4.7259,-4.7347,-4.7447,-4.7512,-4.7628,-4.7651,-4.7717,-4.7711,-4.7736,-4.788,-4.7937,-4.8038,-4.8078,-4.8074,-4.8251,-4.8225,-4.8184,-4.8105,-4.8261,-4.8328,-4.8356,-4.8003,-4.8001,-4.7999,-4.7997,0,0,-4.7387,-4.7489,-4.7521,-4.7567,-4.765,-4.773,-4.7846,-4.7944,-4.8002,-4.8073,-4.8172,-4.8309,-4.8272,-4.8328,-4.833,-4.8411,-4.8572,-4.8359,-4.8361,-4.8399,-4.8773,-4.8805,-4.8836,-4.8555,-4.856,-4.8564,-4.8767,0,-4.7578,-4.7781,-4.7788,-4.7974,-4.807,-4.8042,-4.8143,-4.8205,-4.8232,-4.8318,-4.8347,-4.8446,-4.8388,-4.8422,-4.8501,-4.8535,-4.8647,-4.8521,-4.8648,-4.8653,-4.8632,-4.8871,-4.8905,-4.9093,-4.8793,-4.8797,-4.8801,0,-4.7828,-4.7908,-4.8103,-4.8174,-4.8215,-4.8305,-4.8397,-4.848,-4.855,-4.8564,-4.8628,-4.8618,-4.8737,-4.8653,-4.8819,-4.8733,-4.8785,-4.881,-4.8817,-4.8831,-4.8737,-4.8893,-4.9153,-4.9182,-4.8842,-4.8839,-4.8836,0,-4.798,-4.8137,-4.8274,-4.8314,-4.8399,-4.8464,-4.8503,-4.8568,-4.8628,-4.8708,-4.8747,-4.884,-4.8892,-4.8965,-4.8981,-4.8918,-4.9147,-4.9064,-4.9164,-4.9164,-4.9214,-4.9211,-4.9489,-4.9245,-4.9245,-4.9244,-4.9244,0,-4.8194,-4.8315,-4.8344,-4.8429,-4.8564,-4.8572,-4.8705,-4.8739,-4.8798,-4.889,-4.8871,-4.8957,-4.8972,-4.9062,-4.9076,-4.9212,-4.9235,-4.925,-4.9253,-4.9253,-4.9252,-4.9289,-4.9277,-4.9252,-4.925,-4.9249,-4.9247,0,-4.8387,-4.8411,-4.856,-4.8629,-4.8649,-4.8746,-4.8805,-4.8887,-4.8911,-4.9028,-4.9055,-4.9094,-4.92,-4.9222,-4.9347,-4.9356,-4.9519,-4.9507,-4.9495,-4.9495,-4.9593,-4.9584,-4.9906,-4.9949,-4.9675,-4.9678,-4.968,0,-4.8523,-4.8615,-4.8694,-4.8754,-4.8796,-4.8893,-4.8954,-4.8965,-4.9029,-4.9117,-4.9189,-4.9292,-4.9376,-4.9546,-4.9586,-4.9681,-4.9673,-4.9779,-4.9688,-4.9686,-4.9678,-4.9673,-4.9683,-4.9798,-4.98,-4.9803,-4.9805,0,-4.8762,-4.8769,-4.8857,-4.8951,-4.9024,-4.9098,-4.9168,-4.9218,-4.9239,-4.9313,-4.942,-4.9485,-4.9613,-4.9716,-4.9813,-4.9853,-4.9834,-4.9833,-4.9862,-4.9864,-4.9854,-4.9863,-4.9545,-4.9826,-4.9824,-4.9822,-4.9821,-4.982,-4.8932,-4.9013,-4.9082,-4.9182,-4.9236,-4.9302,-4.9383,-4.9418,-4.9508,-4.9613,-4.9614,-4.9732,-4.9801,-4.9929,-4.9975,-5.0069,-5.0036,-5.0076,-5.0087,-5.0097,-5.0107,-4.9838,-5.0086,-5.0085,-5.0085,-5.0084,-5.0084,0,-4.9171,-4.9214,-4.9306,-4.9405,-4.9484,-4.9457,-4.9534,-4.9602,-4.9706,-4.9772,-4.9855,-4.998,-5.008,-5.0128,-5.0228,-5.0293,-5.0287,-5.0319,-5.0316,-5.0326,-5.013,-5.0096,-5.0323,-5.0323,-5.0323,-5.0323,-5.0323,-5.0323,-4.9305,-4.9443,-4.9459,-4.9624,-4.9666,-4.9781,-4.9828,-4.9889,-4.9943,-5.0083,-5.0166,-5.0196,-5.0256,-5.036,-5.0452,-5.0463,-5.0502,-5.0539,-5.0547,-5.0363,-5.0339,-5.0316,-5.0285,-5.0547,-5.0547,-5.0735,-5.0736,-5.0738]},{"header":{"parameterUnit":"m.s-1","parameterCategory":1,"la1":30.2991,"la2":30.254,"lo1":-89.0895,"lo2":-89.0444,"dy":0.0017,"dx":0.0017,"nx":28,"ny":28,"refTime":"2023-11-15T03:00:00:Z","depth":0,"parameterNumber":3,"parameterNumberName":"V-component_of_WINDS"},"data":[0,0,0,0,0,0,0,0,0,0,0,0,0,0,0,0,0,0,0,0,0,0,0,0,0,0,0,0,0,0,0,0,0,0,0,0,0,0,0,0,0,0,0,0,0,0,0,0,0,0,0,0,0,0,0,0,0,0,-5.7752,-5.7752,0,-5.7746,-5.7746,-5.7746,-5.7637,-5.7634,-5.7631,-5.7629,-5.7622,-5.7625,-5.7627,0,0,0,0,0,0,0,0,0,0,0,0,0,-5.7668,-5.767,-5.7752,-5.7752,-5.7752,-5.7746,-5.7746,-5.7746,-5.7637,-5.7634,-5.763,-5.7627,-5.7621,-5.7624,-5.7627,0,0,0,0,0,0,0,0,0,0,0,0,0,-5.7688,-5.7671,-5.7752,-5.7697,-5.7692,-5.7746,-5.7746,-5.7746,-5.7638,-5.7634,-5.763,-5.7626,-5.762,-5.7624,-5.7628,-5.7734,0,0,-5.7639,-5.764,0,0,0,0,0,0,0,0,-5.7687,-5.7691,-5.7705,-5.7701,-5.7695,-5.7688,-5.7714,-5.7742,-5.7639,-5.7659,-5.7628,-5.7624,-5.7647,-5.7649,-5.7657,-5.7734,-5.7733,-5.7639,-5.7641,-5.7643,-5.7644,0,0,0,0,0,0,0,-5.7685,-5.7691,-5.775,-5.7705,-5.77,-5.7672,-5.767,-5.7719,-5.7677,-5.7656,-5.7649,-5.7649,-5.7644,-5.7653,-5.7656,-5.7733,-5.7639,-5.7642,-5.7644,-5.7646,-5.7897,-5.7901,0,0,0,0,0,0,-5.7692,-5.769,-5.775,-5.7749,-5.7681,-5.7677,-5.7675,-5.7695,-5.7676,-5.7669,-5.7653,-5.7644,-5.7649,-5.7652,-5.7655,-5.7778,-5.7643,-5.7646,-5.7648,-5.7892,-5.7898,-5.7903,0,0,0,0,0,0,-5.769,-5.7698,-5.775,-5.7718,-5.7722,-5.7683,-5.7706,-5.7697,-5.7706,-5.7673,-5.7665,-5.7671,-5.7646,-5.765,-5.7715,-5.7776,-5.7648,-5.7651,-5.7887,-5.7894,-5.79,-5.8025,0,0,0,0,0,0,-5.7689,-5.7698,-5.7739,-5.7719,-5.7724,-5.7811,-5.771,-5.77,-5.7713,-5.7701,-5.7687,-5.7681,-5.7643,-5.771,-5.7719,-5.7779,-5.7654,-5.7881,-5.789,-5.7898,-5.8016,-5.8036,-5.8053,0,0,0,0,0,-5.7686,-5.7774,-5.7741,-5.7749,-5.7774,-5.7815,-5.7817,-5.7772,-5.7718,-5.7758,-5.7737,-5.7681,-5.7768,-5.7718,-5.7726,-5.7789,-5.7877,-5.7888,-5.7897,-5.8007,-5.8032,-5.8052,0,0,0,0,0,0,-5.7802,-5.7771,-5.7734,-5.7819,-5.782,-5.7796,-5.7845,-5.7799,-5.7816,-5.7805,-5.7747,-5.7745,-5.7819,-5.781,-5.7755,-5.789,-5.7813,-5.7825,-5.7894,-5.7917,-5.7935,-5.7935,-5.7657,0,0,0,0,0,-5.7837,-5.7873,-5.7844,-5.7922,-5.7924,-5.7885,-5.7901,-5.7866,-5.7865,-5.7865,-5.7848,-5.785,-5.7877,-5.7896,-5.7919,-5.8014,-5.8009,-5.8061,-5.8079,-5.8095,-5.8106,-5.8155,-5.8177,-5.7936,-5.7936,-5.7935,0,0,-5.7911,-5.7898,-5.7925,-5.7945,-5.7941,-5.798,-5.7886,-5.793,-5.7958,-5.7871,-5.7932,-5.792,-5.7917,-5.7998,-5.8032,-5.7993,-5.8172,-5.8108,-5.812,-5.8123,-5.8168,-5.819,-5.8211,-5.7942,-5.7941,-5.794,0,0,-5.8064,-5.8059,-5.8123,-5.8121,-5.8118,-5.8091,-5.8107,-5.809,-5.8078,-5.8138,-5.8074,-5.8106,-5.8154,-5.8155,-5.8162,-5.8315,-5.8265,-5.8324,-5.8421,-5.8469,-5.8488,-5.8505,-5.856,-5.858,-5.8336,-5.8336,-5.8336,0,-5.8156,-5.8211,-5.8161,-5.821,-5.822,-5.8144,-5.8208,-5.8209,-5.8214,-5.8222,-5.8178,-5.8237,-5.823,-5.8309,-5.8346,-5.8354,-5.837,-5.8326,-5.849,-5.8506,-5.8521,-5.8572,-5.8593,-5.8343,-5.8342,-5.8342,-5.8341,0,-5.8324,-5.8364,-5.8415,-5.8422,-5.8438,-5.8494,-5.8452,-5.8475,-5.8438,-5.8416,-5.8478,-5.8466,-5.8486,-5.8502,-5.8467,-5.8576,-5.8552,-5.85,-5.8421,-5.8552,-5.8599,-5.8618,-5.8354,-5.8351,-5.8349,-5.8347,0,0,-5.8551,-5.8529,-5.8549,-5.855,-5.8541,-5.857,-5.8622,-5.8641,-5.8662,-5.8667,-5.871,-5.8752,-5.8704,-5.8712,-5.8676,-5.8718,-5.884,-5.866,-5.8659,-5.8694,-5.896,-5.8999,-5.9023,-5.8807,-5.881,-5.8813,-5.896,0,-5.8699,-5.8788,-5.8744,-5.8837,-5.8873,-5.88,-5.8846,-5.8845,-5.8825,-5.8852,-5.883,-5.8862,-5.8795,-5.88,-5.8838,-5.8817,-5.8893,-5.8806,-5.8846,-5.8848,-5.8849,-5.9048,-5.909,-5.9229,-5.8978,-5.8981,-5.8984,0,-5.8884,-5.8897,-5.8995,-5.8978,-5.8991,-5.9033,-5.9047,-5.9073,-5.9071,-5.9053,-5.9062,-5.9016,-5.9066,-5.8988,-5.9056,-5.8998,-5.9012,-5.9004,-5.9008,-5.901,-5.8924,-5.9055,-5.9272,-5.9293,-5.9012,-5.901,-5.9008,0,-5.904,-5.9082,-5.9145,-5.9149,-5.9131,-5.9162,-5.9156,-5.9149,-5.9163,-5.9175,-5.9184,-5.9202,-5.9212,-5.9227,-5.9187,-5.9134,-5.926,-5.9179,-5.9247,-5.9249,-5.9277,-5.9276,-5.95,-5.9287,-5.9286,-5.9286,-5.9286,0,-5.921,-5.9272,-5.9215,-5.9254,-5.9322,-5.927,-5.9338,-5.9324,-5.9319,-5.9354,-5.9292,-5.9326,-5.9271,-5.93,-5.9269,-5.933,-5.9335,-5.9323,-5.9314,-5.9328,-5.933,-5.9336,-5.9326,-5.9291,-5.929,-5.9289,-5.9288,0,-5.9395,-5.9359,-5.9424,-5.9401,-5.9397,-5.9448,-5.9429,-5.9464,-5.944,-5.9485,-5.9493,-5.9456,-5.9486,-5.9448,-5.9475,-5.9454,-5.9537,-5.9514,-5.9538,-5.9531,-5.9602,-5.9596,-5.9838,-5.9867,-5.9635,-5.9638,-5.9639,0,-5.9506,-5.9552,-5.9535,-5.9554,-5.9551,-5.9583,-5.9597,-5.9548,-5.9565,-5.9565,-5.96,-5.9625,-5.9643,-5.9695,-5.9671,-5.9691,-5.9668,-5.9751,-5.967,-5.9684,-5.9669,-5.9667,-5.9671,-5.9768,-5.977,-5.9773,-5.9774,0,-5.9707,-5.9686,-5.9709,-5.9726,-5.9744,-5.9755,-5.9761,-5.978,-5.9729,-5.9751,-5.9782,-5.9795,-5.9823,-5.9849,-5.9862,-5.9856,-5.9807,-5.98,-5.9817,-5.9832,-5.9845,-5.9839,-5.9583,-5.9795,-5.9793,-5.9791,-5.979,-5.9789,-5.9858,-5.9895,-5.9889,-5.9916,-5.9915,-5.9922,-5.9954,-5.9934,-5.9959,-5.9977,-5.9947,-5.9985,-5.998,-5.9994,-5.9993,-6.0022,-5.9986,-6.0011,-6.0017,-6.0024,-6.0035,-5.984,-6.0024,-6.0024,-6.0023,-6.0022,-6.0022,0,-6.0055,-6.0047,-6.0073,-6.0083,-6.0105,-6.0056,-6.006,-6.0081,-6.0116,-6.0116,-6.0134,-6.0169,-6.0194,-6.0171,-6.0191,-6.0219,-6.0197,-6.0226,-6.0224,-6.0223,-6.0065,-6.0049,-6.0244,-6.0244,-6.0244,-6.0243,-6.0243,-6.0243,-6.0161,-6.0221,-6.02,-6.026,-6.0251,-6.0288,-6.0295,-6.0301,-6.03,-6.0342,-6.0362,-6.0347,-6.0338,-6.0357,-6.0378,-6.037,-6.0381,-6.0418,-6.0403,-6.0256,-6.0234,-6.0213,-6.0197,-6.042,-6.042,-6.0557,-6.0559,-6.056]}]]